Wind_Speed
18 15 14 13 11 11 11 11 11 12 13 12 12 11 12 14 16 17 18 18 19 20 20 19 19 18 17 16 16 16 15 14 14 14 14 14 14 14 14 13 13 12 12 12 11 11 11 12 13 14 14 15 14 12 12 13 14 15 15 15 13 12 12 14 16 16 15 14 13 13 14 14 14 14 14 14 14 14 14 13 13 13 13 14 13
21 18 16 15 12 11 11 12 12 13 13 13 13 12 13 14 16 17 18 19 19 20 20 19 18 17 16 16 16 15 15 14 14 14 14 14 15 14 14 13 12 12 12 12 11 11 11 13 14 15 15 14 13 13 13 14 16 16 16 15 15 14 15 17 18 18 17 16 14 14 13 13 13 13 14 14 13 13 13 13 12 13 13 13 13
20 19 18 16 14 12 12 12 13 14 14 14 14 14 14 15 16 17 18 19 19 20 19 19 18 17 16 16 15 15 14 14 14 14 14 14 14 14 13 13 13 12 12 12 12 12 12 13 14 14 14 14 14 13 14 16 17 17 16 16 17 18 18 19 19 18 17 16 15 14 13 12 12 12 12 12 12 12 12 11 11 12 13 12 12
19 20 20 18 15 13 13 13 13 14 15 15 15 15 15 15 16 17 18 18 19 19 18 18 18 17 16 16 15 14 14 13 13 13 13 14 14 13 13 13 13 13 12 13 13 12 12 13 14 14 14 14 15 15 16 18 18 18 18 20 21 21 20 20 19 18 17 16 16 14 13 11 10 11 11 11 10 10 11 11 11 12 12 12 13
19 22 21 19 17 15 13 13 14 15 15 15 16 16 16 16 17 17 18 18 19 19 18 18 17 17 16 15 14 14 13 13 12 12 13 13 13 13 12 12 13 12 12 12 12 12 12 13 13 13 14 14 15 16 17 18 19 20 21 23 23 23 22 20 19 17 16 15 15 14 13 10 9 10 10 10 10 10 10 11 12 12 13 13 12
18 23 22 20 19 16 15 14 15 16 16 16 16 17 17 17 17 18 18 18 19 18 19 18 17 17 16 15 14 14 13 13 12 12 13 12 13 12 12 12 12 11 10 11 11 10 10 11 12 13 14 14 15 16 17 18 20 22 24 24 24 24 22 21 18 16 14 13 13 13 12 9 8 9 9 9 10 10 10 11 12 12 12 12 12
18 22 22 20 19 18 16 15 16 16 16 16 17 18 18 18 18 18 18 18 18 18 18 18 17 16 15 14 13 13 13 12 12 12 12 12 12 12 11 11 10 10 9 9 9 8 9 10 11 12 14 15 15 16 17 19 21 23 24 24 24 23 22 19 17 14 11 9 10 12 11 8 8 8 8 9 9 9 9 10 10 11 12 11 11
19 22 22 20 19 18 17 16 16 17 17 16 17 18 19 19 18 18 18 18 18 18 18 17 17 16 15 13 13 12 12 12 12 12 12 11 11 10 10 10 9 9 9 8 8 7 8 9 10 12 14 15 16 17 17 19 22 23 24 24 24 22 20 18 16 12 9 7 9 12 10 8 8 8 8 8 9 9 9 10 10 10 11 11 10
20 23 22 20 20 19 18 17 17 17 17 17 17 18 19 19 18 18 17 18 18 18 18 17 16 15 14 13 12 12 12 11 11 11 11 10 9 9 9 8 8 8 8 8 7 7 9 10 10 12 14 16 17 17 18 20 22 23 24 24 22 20 19 17 14 11 8 7 9 10 10 8 8 7 7 8 9 9 10 10 10 11 10 10 10
21 23 22 19 19 19 18 17 17 17 17 18 18 19 19 19 19 18 18 18 19 18 18 17 16 15 14 13 12 11 11 11 11 10 10 9 8 8 7 7 7 7 7 6 6 7 10 10 11 13 15 16 17 17 18 20 22 23 22 22 21 20 18 16 13 10 8 6 5 7 9 9 8 7 8 9 10 11 12 12 12 12 11 11 11
22 23 22 19 19 19 19 18 17 18 18 18 19 20 20 20 19 19 18 18 19 18 17 16 15 15 13 12 11 10 10 10 10 9 8 8 7 7 6 6 6 6 6 5 6 9 10 11 12 13 15 16 17 17 18 20 21 21 20 21 21 20 18 16 13 10 8 4 4 7 8 7 7 7 9 10 11 12 12 13 13 13 12 12 11
23 23 22 20 20 19 19 18 18 18 18 19 20 20 20 20 20 19 19 18 18 18 17 16 15 14 13 12 10 9 9 9 9 8 7 7 7 6 6 5 5 6 6 6 7 10 11 12 13 14 15 16 16 17 17 19 20 20 20 20 20 19 17 16 13 9 6 2 3 6 6 6 7 8 9 10 11 11 12 13 13 13 13 13 12
24 23 22 20 20 19 19 18 18 18 18 19 20 20 20 20 19 19 19 18 18 17 17 15 14 13 12 11 10 9 8 8 7 7 7 7 7 6 5 5 5 6 7 7 9 10 11 12 13 14 15 15 16 16 16 17 18 18 19 19 18 17 16 15 12 7 4 2 3 5 5 6 8 9 9 10 11 11 12 13 14 14 13 13 12
22 22 21 20 20 19 19 19 18 18 19 20 21 21 20 20 19 18 18 18 17 16 16 15 14 13 11 10 8 8 7 7 6 6 6 6 6 6 5 6 6 7 7 8 10 11 11 13 13 14 15 15 15 15 15 15 16 17 17 17 17 16 15 15 12 8 2 2 3 4 5 7 8 9 10 10 11 12 13 14 14 14 14 13 12
19 20 20 19 19 20 20 19 18 18 19 20 21 21 20 19 19 18 18 18 17 15 14 14 12 11 10 9 8 7 7 6 6 6 6 6 6 6 6 6 6 7 8 9 10 11 12 12 13 14 14 14 14 14 13 13 14 15 15 15 14 14 13 13 12 7 2 3 3 4 6 8 9 9 10 11 12 13 14 15 15 14 14 13 12
15 16 18 19 19 20 20 19 19 19 19 20 21 21 20 19 19 18 18 17 16 15 13 12 11 10 9 8 7 7 6 6 6 6 5 5 6 6 6 6 6 6 8 9 10 11 12 12 13 13 13 13 13 12 12 12 13 13 13 12 12 13 12 11 10 6 4 2 4 5 5 8 9 9 9 10 12 13 14 15 15 15 15 14 12
15 14 17 19 19 19 19 20 19 19 20 20 21 21 19 18 18 18 17 17 15 14 12 11 10 9 8 7 7 7 6 6 5 5 5 5 6 6 6 6 6 6 7 9 10 10 11 11 11 12 12 12 12 11 11 11 12 11 10 10 10 11 11 10 9 5 3 1 5 5 6 8 9 9 9 10 12 13 14 14 15 15 14 14 13
16 15 17 19 18 18 19 19 19 19 20 20 21 20 19 18 18 18 17 16 15 13 12 11 10 8 8 7 7 6 6 7 7 7 6 5 6 6 6 7 6 6 7 8 9 9 10 10 10 10 10 10 11 10 10 10 10 9 8 9 10 10 9 8 8 5 4 3 8 8 6 8 8 9 9 10 12 13 14 15 15 15 14 14 12
17 17 18 19 18 18 19 19 19 19 19 20 21 20 19 18 18 18 17 15 14 12 11 10 9 8 8 7 6 6 7 9 9 9 8 6 6 7 7 7 6 6 6 7 8 8 8 9 9 9 8 9 9 9 9 8 7 7 7 8 9 9 8 7 6 5 3 3 9 10 10 10 10 8 9 10 12 14 14 15 15 15 14 13 13
18 19 20 20 19 18 18 18 18 18 18 19 20 21 19 18 18 17 16 15 13 12 11 10 9 8 8 7 8 8 9 10 10 10 9 7 7 8 8 7 7 6 6 6 6 7 7 7 7 7 7 7 7 7 7 7 6 5 6 6 7 8 7 6 4 3 1 4 10 11 12 12 10 9 9 10 12 13 14 15 15 15 14 13 13
19 21 21 22 20 18 18 17 18 17 18 19 20 21 19 18 17 16 16 14 13 12 11 10 9 9 9 9 9 9 9 9 10 11 10 8 8 8 8 8 7 7 6 6 5 5 5 5 6 6 5 5 5 5 5 5 5 4 3 4 5 6 5 4 4 1 2 5 10 12 12 11 11 11 10 11 12 13 14 15 15 14 14 13 13
19 23 23 21 19 18 18 17 17 17 17 18 20 21 19 19 18 17 16 14 13 12 11 10 10 10 10 9 8 8 8 8 8 10 10 10 9 9 9 8 8 7 7 6 6 5 4 4 4 4 4 3 4 4 4 4 4 3 2 1 3 4 3 3 4 3 4 5 9 12 12 13 13 12 11 11 12 12 14 14 14 14 14 13 12
20 22 20 19 18 19 19 18 18 17 17 18 19 19 19 20 19 18 16 15 14 13 13 12 11 11 9 8 6 6 7 7 8 9 10 9 9 9 8 8 8 7 7 6 6 5 4 4 3 3 2 2 3 3 3 3 3 2 2 2 3 4 4 3 4 3 4 7 10 12 13 14 14 12 12 12 12 12 13 13 14 13 13 13 13
23 22 18 17 19 20 19 18 17 16 16 17 17 18 19 20 19 18 17 16 15 14 14 13 12 10 8 6 5 5 6 6 6 7 7 7 8 8 8 9 8 7 7 7 6 5 5 4 3 3 3 3 3 3 3 4 2 2 4 5 6 6 6 6 4 2 6 8 11 14 15 15 14 13 13 13 12 12 13 13 14 13 13 13 13
25 23 21 19 20 20 18 18 16 15 15 16 17 19 20 20 19 18 16 16 15 14 13 12 11 9 7 5 4 4 4 5 5 3 2 4 6 6 7 8 8 7 6 6 5 5 4 4 2 1 2 3 3 2 3 4 5 6 8 9 8 8 8 8 3 4 9 11 13 15 15 16 15 15 15 13 12 12 13 13 14 14 13 13 13
27 26 24 23 22 21 19 18 15 14 14 16 19 20 20 19 18 17 16 16 14 14 12 10 10 7 5 4 4 4 3 5 3 1 3 4 4 3 4 5 5 5 4 4 3 3 3 2 1 0 0 0 1 2 3 6 9 9 11 12 11 10 10 9 6 6 10 12 15 16 16 17 16 16 16 15 14 13 13 14 14 14 14 13 13
29 27 25 24 23 21 20 18 15 14 15 17 18 20 20 16 15 15 15 14 13 12 11 9 9 8 6 4 5 4 3 4 4 2 1 2 2 1 1 2 2 2 3 3 3 3 4 2 2 2 2 2 2 3 3 6 9 11 13 14 14 12 11 9 7 8 11 12 13 14 15 17 17 17 17 17 16 15 14 14 15 15 14 13 13
25 24 23 23 22 19 20 19 15 14 16 16 16 18 17 13 11 11 12 9 8 10 9 8 8 7 6 5 6 7 5 4 4 2 1 1 2 2 2 3 3 3 4 5 5 5 5 5 6 6 6 6 6 5 5 6 8 10 12 14 14 14 12 11 10 10 12 14 14 14 15 16 18 18 18 18 18 17 16 16 16 16 15 14 14
17 20 19 20 20 19 20 20 16 14 17 17 15 16 14 10 10 10 10 7 6 8 8 8 8 7 6 7 9 8 7 5 5 4 3 3 3 3 3 2 2 5 5 4 5 6 6 6 8 8 8 9 8 7 8 8 9 10 11 11 12 14 15 15 15 13 15 17 17 16 16 17 17 17 18 18 19 19 19 18 17 17 17 16 15
14 16 16 16 18 19 19 18 16 14 17 17 14 14 14 12 11 10 9 7 7 8 8 8 7 7 8 10 9 6 6 5 5 5 5 4 3 3 4 4 3 5 7 6 7 7 8 8 9 10 11 12 11 9 10 10 10 10 11 11 10 13 15 16 18 18 18 19 19 17 16 17 17 17 17 18 19 20 20 20 18 18 18 17 17
15 15 16 18 18 19 20 18 16 15 17 17 13 15 16 13 13 12 10 9 8 9 10 8 7 7 7 9 8 6 5 4 5 5 4 4 3 3 4 4 4 5 6 7 7 7 8 8 10 11 12 13 13 11 11 12 11 11 12 12 10 11 13 16 18 18 18 18 18 18 17 17 18 18 19 19 19 20 20 20 19 19 18 18 19
18 18 17 17 16 17 19 18 17 17 17 16 15 17 16 15 18 16 12 12 11 11 12 10 8 6 6 8 7 6 5 4 5 4 4 3 3 2 3 3 3 5 5 5 6 6 7 7 8 9 10 11 12 11 11 11 12 13 14 15 14 14 15 17 18 19 19 17 16 19 21 21 21 21 22 21 20 21 21 20 19 19 19 20 20
21 21 17 13 13 14 16 17 19 20 18 16 16 17 16 16 20 19 15 15 13 12 13 10 8 7 7 7 6 5 5 4 4 3 4 2 1 1 1 2 3 4 4 4 5 5 5 5 6 7 7 8 9 9 10 10 11 13 15 15 16 17 18 18 18 19 20 19 17 17 20 22 23 23 23 23 22 22 22 20 18 18 20 22 22
20 17 13 12 13 16 17 17 19 19 16 15 14 16 17 17 18 18 17 15 11 11 12 8 7 6 7 6 5 5 4 4 3 2 3 2 2 1 1 1 2 3 3 3 4 5 5 5 6 6 6 7 7 7 8 9 10 12 13 14 16 18 19 19 20 20 20 20 19 18 18 20 22 23 23 23 23 22 22 21 20 21 21 22 23
16 13 12 13 16 19 19 18 18 17 15 14 14 16 18 17 15 16 17 14 11 10 10 8 7 7 7 6 5 5 4 4 2 1 2 3 3 2 1 0 2 4 4 3 4 4 4 6 7 7 7 7 7 7 8 8 9 10 11 13 15 16 18 20 21 21 21 21 21 20 20 20 22 23 23 23 24 23 23 23 23 23 22 21 21
16 15 16 18 20 21 20 19 17 15 14 14 15 17 17 16 14 14 14 12 12 11 9 7 7 6 6 5 5 4 3 3 2 1 3 4 3 1 0 1 2 4 3 3 5 5 5 6 7 8 8 8 8 8 8 9 10 10 11 11 12 14 15 16 17 18 19 20 19 19 20 21 22 23 23 24 23 23 22 22 23 23 22 22 21
21 20 20 21 22 23 21 19 17 15 14 14 14 16 17 16 13 13 12 10 10 10 9 8 7 6 5 4 4 3 3 2 2 3 3 4 3 2 1 2 2 3 4 4 6 6 7 6 7 9 9 9 9 9 9 9 10 10 10 11 11 11 11 11 12 13 14 15 16 16 17 18 19 21 22 22 22 22 22 21 21 21 21 21 21
24 24 24 24 24 24 21 18 18 16 15 15 14 15 16 15 14 13 13 11 10 9 9 8 7 6 5 4 3 3 3 3 3 2 3 3 3 2 2 3 3 4 5 5 6 7 8 8 9 10 9 9 9 9 10 9 10 11 11 10 10 11 11 10 10 9 11 12 12 13 13 13 14 16 18 20 20 21 21 21 20 20 19 20 21
26 26 26 25 25 24 22 20 18 17 16 16 16 15 14 14 15 15 14 13 12 10 9 8 7 5 5 4 3 3 3 3 3 3 3 3 3 3 3 3 4 5 5 6 7 7 8 9 10 9 9 8 8 8 9 10 10 11 11 10 10 10 9 8 8 7 8 9 10 12 13 13 13 13 15 17 18 18 19 19 20 20 19 20 22
26 26 26 25 24 24 23 22 20 19 18 17 17 16 15 15 16 16 14 14 13 11 10 9 8 6 5 4 3 3 2 2 4 4 3 2 3 3 3 3 5 6 6 6 7 8 9 9 9 9 8 6 6 6 7 9 9 10 10 10 10 10 9 7 5 6 8 11 11 12 12 12 13 13 13 14 16 18 18 18 20 21 21 21 23
26 26 26 25 24 23 24 23 22 21 20 18 17 16 16 16 17 17 15 14 12 11 11 9 7 6 5 5 4 3 3 2 3 3 2 2 3 3 5 6 7 7 7 7 7 7 8 9 9 9 8 5 4 5 6 7 9 10 11 9 9 9 9 5 3 6 12 12 9 9 12 13 13 13 13 13 15 16 17 18 19 21 21 22 23
28 27 26 25 24 23 23 23 22 21 20 18 17 16 16 16 17 17 16 15 13 11 10 9 7 7 6 5 5 5 5 4 3 3 4 6 7 7 9 9 8 8 9 9 7 7 8 9 9 8 7 5 4 4 6 7 9 11 12 12 12 10 8 2 1 8 12 8 7 10 12 13 14 14 14 14 14 15 16 17 19 20 21 22 22
27 25 25 25 24 23 23 22 21 20 21 19 18 17 17 16 16 15 14 14 13 11 11 10 8 7 8 8 7 8 7 6 6 7 9 10 10 10 11 10 9 9 10 9 9 10 10 9 9 9 7 5 3 4 6 7 9 10 11 12 12 11 9 5 6 9 7 4 8 11 10 12 14 15 15 15 16 16 16 17 19 20 21 22 22
26 25 24 24 23 23 22 22 21 20 20 21 19 18 17 17 16 14 13 13 13 12 11 10 8 9 11 11 9 8 8 10 11 11 11 11 10 11 11 11 11 11 10 10 10 11 11 10 10 11 10 8 6 5 3 5 8 9 11 11 10 11 12 13 17 12 3 5 10 9 9 12 12 13 14 14 16 17 18 18 19 20 22 22 22
24 24 24 23 23 23 22 22 21 20 21 21 20 18 17 17 16 15 15 15 14 13 13 13 12 12 11 10 9 10 12 13 13 12 12 12 11 11 11 11 12 12 12 11 11 12 12 12 12 12 13 12 11 8 5 4 5 6 8 9 8 9 12 16 19 14 9 10 11 8 8 9 9 11 13 13 15 16 18 20 20 20 22 23 23
23 23 23 24 24 24 23 22 22 21 21 20 19 18 18 16 15 15 16 17 17 16 16 16 14 12 10 11 13 13 13 14 14 13 13 12 12 12 12 12 12 13 13 12 12 12 12 13 14 13 14 14 14 13 10 8 6 3 2 5 5 6 11 14 15 16 19 17 14 11 10 9 8 9 11 12 13 14 15 18 19 20 22 23 24
23 23 24 25 24 24 23 23 22 22 21 19 18 18 17 16 14 15 16 17 18 17 16 14 13 12 12 13 14 14 14 14 15 14 14 14 14 13 13 13 13 14 13 13 12 12 12 14 15 15 15 15 16 15 14 12 10 8 6 4 4 5 10 12 11 14 19 22 21 18 16 15 13 12 13 12 12 13 13 16 18 20 22 24 25
24 25 27 26 25 25 24 23 22 21 20 19 19 17 16 16 15 15 16 15 15 16 16 15 14 14 13 13 14 14 14 15 15 16 15 15 15 14 14 13 13 13 14 13 12 12 13 14 14 15 15 15 15 14 15 15 14 13 12 10 10 11 12 12 10 10 13 18 24 24 22 22 18 18 18 16 15 15 14 15 18 21 23 23 24
25 27 27 27 26 26 25 23 23 22 20 19 19 17 16 16 16 16 16 15 14 16 17 15 13 12 12 13 14 15 15 16 16 16 16 15 15 14 12 12 12 12 12 11 10 10 10 10 9 9 9 8 8 10 11 12 13 13 14 13 13 13 12 10 10 10 11 13 18 22 24 25 23 21 21 21 20 18 17 16 16 20 22 21 22
27 27 27 27 27 27 26 25 23 23 21 19 19 18 17 16 16 16 17 16 15 15 15 12 10 10 11 13 14 15 16 16 15 15 15 13 13 11 9 8 8 8 7 5 4 4 5 4 3 2 3 3 4 5 6 7 8 9 10 12 12 11 11 11 12 13 13 13 15 19 22 23 24 25 24 23 22 19 18 14 14 18 19 19 20
29 29 29 28 28 27 27 26 24 24 22 21 20 20 19 18 17 16 15 14 13 13 11 9 9 9 11 13 15 16 16 14 12 11 10 9 8 7 5 4 4 3 2 1 1 2 2 2 2 3 4 4 4 5 6 7 8 8 9 9 9 9 9 11 14 15 14 16 17 19 20 21 23 25 25 25 23 20 16 12 11 15 17 17 15
Wind_Direction
175 175 179 168 167 167 162 152 143 129 115 110 108 112 120 122 123 122 121 121 123 123 122 120 120 119 119 116 110 108 106 103 102 102 103 102 102 101 99 95 87 78 72 66 59 56 53 60 71 88 104 109 110 108 105 105 103 101 101 100 98 93 88 86 87 89 88 86 81 78 77 75 73 73 72 69 67 66 65 64 61 58 57 55 55
168 170 177 167 169 167 163 153 142 128 117 114 111 114 121 124 125 124 124 124 126 126 124 124 123 123 120 115 109 107 105 104 104 105 105 104 104 103 100 92 83 77 71 64 60 62 62 69 76 89 102 107 108 107 103 103 102 100 99 97 95 93 93 94 95 94 91 87 81 75 74 74 75 74 71 67 63 61 60 57 56 54 54 52 51
172 170 173 166 166 165 164 153 141 129 120 117 114 118 124 126 126 126 126 127 128 127 126 126 126 124 119 113 109 107 105 104 106 107 105 105 104 103 99 89 81 77 70 64 64 67 70 74 79 88 99 105 107 106 105 103 102 99 99 98 96 96 98 98 98 95 92 90 86 78 71 73 76 74 71 67 63 59 53 49 50 49 48 46 44
185 177 171 165 161 162 163 153 141 129 122 120 119 122 126 128 127 128 128 129 129 127 125 125 126 123 117 112 110 107 105 105 107 106 104 105 103 102 96 86 81 76 67 63 64 69 70 71 77 87 96 104 106 107 107 105 102 99 100 99 98 96 95 94 95 94 92 90 87 81 72 68 72 71 70 67 64 58 48 43 45 45 42 38 38
189 183 173 165 158 158 159 153 140 129 125 123 124 125 128 129 129 129 130 131 130 127 125 125 124 120 116 112 110 108 106 106 105 105 103 103 102 99 94 85 80 73 65 60 59 67 69 68 74 85 95 103 107 109 108 107 103 102 103 100 97 93 90 87 87 85 83 83 82 79 67 60 66 67 65 62 59 52 44 38 36 39 38 33 31
187 183 174 165 157 154 156 151 140 131 128 127 127 128 130 131 131 131 132 133 131 128 126 126 122 118 115 111 109 107 107 106 104 105 104 103 101 100 95 87 81 71 64 56 51 62 69 67 72 84 96 104 109 111 110 108 107 108 106 102 97 92 88 84 81 77 72 70 70 68 57 50 58 58 57 52 48 44 38 34 28 28 30 29 24
186 183 174 164 156 151 152 148 140 133 130 131 131 131 132 133 133 134 134 134 132 130 128 126 121 116 113 111 110 109 108 108 105 104 104 103 102 101 96 87 80 72 64 52 44 57 73 72 75 86 97 106 111 113 113 111 111 112 108 102 97 93 90 86 84 82 78 67 60 58 49 44 50 47 47 42 40 39 30 28 24 20 19 20 18
182 181 175 162 155 149 148 147 141 136 132 134 133 134 134 134 135 135 136 134 133 132 131 127 120 116 114 112 111 111 110 110 107 105 105 102 100 99 94 84 77 72 62 44 37 60 83 81 81 91 100 107 111 114 114 113 115 113 107 103 100 97 93 90 88 88 89 73 56 53 47 44 44 37 40 36 32 31 24 22 19 17 13 9 8
180 178 171 162 154 147 146 147 141 137 135 136 136 136 135 136 137 137 136 134 134 134 132 126 121 119 117 115 113 113 113 112 108 106 104 100 99 95 88 82 74 68 54 36 38 71 92 90 88 96 103 108 112 116 116 116 118 115 110 107 105 102 98 95 92 89 80 62 46 43 44 47 44 29 29 28 22 19 17 16 12 11 7 1 359
180 174 168 163 153 146 145 144 142 139 137 138 138 138 137 138 138 137 135 133 135 135 132 125 123 122 119 118 116 115 114 113 109 106 102 97 95 88 81 76 68 59 49 41 54 89 101 96 97 101 106 110 114 117 119 120 120 118 115 112 109 104 99 95 92 87 71 47 27 35 40 43 40 22 19 18 14 12 10 8 4 3 359 357 353
176 171 165 161 153 146 144 144 143 140 140 141 141 141 140 140 140 138 136 135 135 133 130 126 125 123 121 120 117 116 114 112 109 103 95 89 84 74 66 59 53 56 63 68 84 105 108 102 104 107 110 113 116 120 122 124 124 123 119 113 108 103 98 96 93 87 79 52 15 35 35 30 28 18 15 12 10 8 5 2 357 356 356 355 350
170 169 163 161 152 146 145 145 144 142 143 143 143 143 142 143 141 139 136 134 133 132 130 128 127 124 123 122 119 116 112 109 103 94 83 73 65 54 46 45 52 69 86 95 104 114 113 109 110 111 114 117 119 122 125 128 129 126 120 114 110 106 104 102 96 85 80 48 15 39 31 20 16 15 13 8 9 6 0 357 353 353 355 356 353
166 167 163 161 152 146 146 144 144 144 144 144 145 145 145 144 141 138 135 132 132 133 131 130 128 127 127 123 120 112 107 102 91 80 70 59 48 42 45 56 73 88 104 110 116 120 117 114 113 115 117 120 122 124 128 131 132 129 124 119 115 114 114 108 99 91 77 1 36 54 27 17 10 10 11 6 5 2 357 353 352 353 355 358 356
162 164 163 162 154 148 145 144 144 144 146 146 147 147 146 144 141 139 135 134 134 133 132 132 130 130 128 122 116 108 101 91 78 67 60 53 43 45 61 74 89 103 115 119 124 124 120 118 116 118 120 123 125 127 130 132 133 133 129 124 122 121 121 116 107 102 90 323 26 39 4 7 5 5 7 3 359 357 356 352 353 353 353 357 355
161 164 166 166 157 150 145 144 144 145 147 147 149 149 147 144 141 138 136 135 134 135 134 132 132 129 128 120 112 103 93 78 65 56 51 45 42 51 69 79 96 114 124 126 130 128 123 121 119 121 122 124 127 129 131 131 134 134 133 128 125 123 120 116 109 115 163 283 339 354 344 357 359 359 2 358 355 354 354 352 351 350 350 353 352
170 167 169 172 164 154 146 142 143 145 147 148 150 148 147 145 141 138 137 136 135 136 135 132 131 127 123 114 105 95 82 69 56 48 44 41 46 56 70 81 99 121 131 132 134 131 127 125 122 123 123 125 126 129 129 130 134 136 138 133 129 124 120 116 114 140 185 270 322 335 336 344 348 350 355 354 351 351 351 350 348 347 347 349 350
177 170 173 175 168 159 148 142 143 145 147 148 149 149 149 145 140 139 137 137 137 136 135 131 129 124 118 108 99 89 76 64 51 44 42 46 53 61 74 84 103 127 136 136 138 135 133 129 126 126 125 126 125 126 127 129 136 141 143 140 136 129 127 123 120 161 194 251 291 307 320 329 336 339 345 347 346 346 347 346 345 345 345 345 346
174 169 172 175 171 162 152 144 144 146 148 148 149 151 149 145 140 140 139 138 138 137 134 130 128 121 115 106 95 88 77 68 61 55 52 55 61 69 79 87 104 128 140 141 142 140 139 134 130 130 129 128 126 127 128 131 139 144 148 145 143 136 132 121 124 175 206 246 279 298 314 323 328 329 336 340 340 341 342 343 342 342 342 342 342
172 170 171 175 174 166 155 147 146 146 149 150 151 152 148 145 142 140 139 139 139 137 134 130 126 118 111 103 96 92 84 78 71 64 60 62 70 78 83 91 104 124 144 147 147 147 145 140 136 134 134 132 130 131 131 134 138 142 150 152 153 144 134 121 134 188 210 255 283 301 313 315 315 320 330 333 333 335 338 339 338 338 339 340 339
172 173 173 175 174 168 157 148 147 147 151 153 154 152 147 145 143 141 140 139 139 136 134 131 125 117 112 108 102 98 88 79 74 68 65 70 80 85 87 92 101 117 142 153 153 155 155 150 144 141 142 140 137 137 136 135 133 136 148 156 159 147 136 132 148 202 242 288 292 305 312 311 310 313 321 327 329 331 334 335 334 334 336 338 337
168 173 175 173 170 165 156 148 147 149 153 155 155 151 147 146 144 143 142 141 141 139 136 131 126 119 116 112 102 96 88 75 72 68 66 77 87 89 91 95 102 112 133 153 162 165 168 161 154 153 150 148 145 142 141 137 129 128 143 166 175 166 162 150 151 224 303 294 291 300 310 313 312 313 315 321 324 326 330 331 331 330 333 336 335
162 170 174 171 168 163 153 150 148 150 154 155 156 152 150 150 146 144 143 142 142 141 138 132 129 125 121 116 103 94 88 79 78 72 70 79 85 87 90 96 103 108 122 145 163 169 178 178 172 168 161 163 159 149 147 140 127 109 107 176 221 230 234 203 183 240 284 285 289 295 304 311 310 310 312 315 318 321 326 327 327 328 328 332 332
154 163 168 165 167 163 153 152 150 150 154 155 158 156 153 150 145 143 142 142 142 141 139 133 129 126 125 120 113 103 88 84 90 82 73 76 79 78 81 86 92 102 112 123 148 165 178 186 192 198 195 201 187 181 177 165 137 90 24 336 303 291 289 250 207 227 282 283 294 298 301 308 309 307 309 311 314 318 322 323 323 324 325 326 328
156 162 161 157 162 161 153 151 147 148 152 154 157 155 151 147 145 144 144 144 142 142 140 137 132 129 130 125 119 107 82 71 83 80 72 79 79 73 73 72 72 84 105 112 122 138 155 169 179 206 221 229 221 229 224 219 236 347 340 333 322 306 299 277 223 232 296 293 295 297 297 301 304 304 305 307 309 313 318 319 318 319 322 323 325
164 167 163 155 155 155 149 145 140 143 150 152 150 147 146 145 146 147 146 145 142 145 144 142 139 133 136 133 122 110 79 62 63 61 84 97 84 79 83 80 75 73 87 106 107 104 117 137 134 179 220 224 219 272 303 287 300 329 330 324 326 322 311 295 272 276 293 296 293 292 294 297 301 302 303 302 303 307 311 315 316 317 318 320 322
171 171 166 158 156 155 146 138 130 130 140 146 145 144 144 144 147 147 147 146 145 148 148 149 148 145 146 138 124 111 89 91 99 179 181 139 100 92 98 93 94 80 69 90 108 74 66 107 119 157 26 329 235 280 322 332 326 324 320 315 316 319 319 315 314 292 287 291 292 293 295 296 299 301 303 301 299 303 308 311 313 313 314 316 319
175 174 167 159 159 156 137 125 118 120 131 143 148 147 142 139 145 145 147 151 151 151 152 153 156 160 151 131 129 126 132 144 159 196 156 118 94 106 93 64 72 66 40 17 358 10 9 347 326 302 313 323 292 289 306 318 312 310 310 308 309 307 308 309 300 285 284 288 292 294 294 295 298 301 303 301 298 299 304 309 309 308 310 311 314
175 171 163 157 154 142 125 116 113 121 130 136 144 146 138 129 136 144 144 147 152 152 154 154 163 176 158 143 158 161 172 184 194 229 311 293 298 302 350 8 352 342 350 354 338 334 339 326 313 304 302 299 283 269 260 262 273 288 297 299 301 297 293 288 278 269 272 277 284 291 295 297 297 298 299 299 298 299 302 305 306 305 306 307 309
161 156 154 149 141 133 129 126 122 122 123 122 128 138 142 138 139 150 144 133 147 152 155 163 177 192 177 172 187 183 178 191 211 218 223 236 260 270 287 317 303 292 297 312 298 293 305 297 283 282 285 285 281 260 243 245 250 262 277 284 283 282 284 280 273 265 263 268 275 282 289 292 293 294 296 296 297 296 298 300 301 301 302 304 306
137 140 142 131 125 129 132 134 135 130 126 126 134 146 155 156 148 155 156 151 168 168 167 179 191 205 206 196 199 197 182 197 221 218 218 233 251 250 251 257 256 260 266 273 274 277 285 283 277 279 278 278 285 272 255 256 253 254 267 276 269 266 270 266 266 267 267 272 275 275 279 283 284 286 290 294 295 293 295 296 295 296 299 303 305
134 131 124 117 123 136 140 145 149 145 140 140 151 159 160 168 164 163 164 167 180 177 177 200 220 218 211 194 190 193 188 211 229 223 228 242 254 254 250 251 257 259 265 272 277 281 282 287 285 281 278 277 283 284 277 265 254 253 260 269 266 262 263 261 266 270 272 277 275 270 271 276 277 278 281 285 287 287 290 294 294 293 296 302 304
139 134 126 123 134 150 153 154 154 150 149 150 161 169 170 177 175 171 169 174 182 184 192 215 219 191 174 170 176 189 193 210 224 230 244 255 246 239 258 265 270 271 279 285 285 285 283 292 291 284 284 283 282 286 288 275 260 255 256 261 264 270 275 274 276 276 278 284 281 272 270 271 272 275 278 279 279 281 284 289 293 293 295 299 299
136 137 140 141 143 155 155 151 153 154 157 162 170 175 176 176 172 175 183 188 193 198 206 208 187 169 170 173 177 190 196 209 223 232 228 231 216 190 267 288 299 285 286 302 304 299 288 297 300 294 295 294 293 291 289 281 269 264 263 264 265 271 278 281 283 281 282 286 287 281 275 272 273 276 278 279 280 282 282 281 284 286 291 296 294
139 138 146 151 147 156 157 154 158 159 164 171 174 174 176 177 172 177 187 192 193 199 206 197 180 186 188 182 175 183 193 207 219 227 198 159 131 127 203 256 323 307 305 329 326 318 309 310 309 303 302 303 307 302 293 285 277 275 274 272 270 272 274 278 281 281 283 285 285 285 281 277 278 281 283 284 284 284 283 280 281 283 283 287 289
143 143 148 145 145 157 164 168 167 166 169 170 171 173 177 180 174 174 179 180 174 182 198 197 194 194 188 181 174 183 189 198 203 193 190 169 155 146 168 275 359 325 322 332 315 311 308 312 316 316 316 314 317 313 305 298 292 290 287 282 278 279 279 281 282 285 288 288 287 286 284 281 282 286 288 288 288 287 286 282 282 284 281 280 281
149 154 153 144 147 158 165 170 169 167 172 169 170 175 179 179 174 168 168 170 166 171 186 189 183 179 182 179 169 180 177 179 198 187 201 197 182 160 211 348 352 315 313 310 303 304 305 316 323 324 322 318 320 316 311 306 302 302 300 296 291 289 287 287 289 291 293 292 292 291 288 285 285 287 288 290 291 290 291 289 285 284 282 279 275
158 161 157 151 152 154 158 163 163 163 170 173 175 178 180 177 169 164 164 167 164 164 170 172 167 164 173 171 160 173 153 153 196 195 201 210 200 181 250 303 312 296 303 311 307 306 310 319 321 318 315 313 315 313 313 308 305 311 314 312 309 304 301 302 302 299 300 301 303 303 298 294 290 289 289 291 293 294 296 296 291 287 282 278 273
159 160 157 156 153 150 155 160 158 160 169 175 176 177 178 171 161 161 164 165 161 158 158 160 163 163 168 164 155 157 147 165 199 207 220 235 233 211 262 291 299 297 301 308 305 307 312 312 310 310 308 309 313 313 315 311 309 317 319 318 317 316 315 319 321 316 311 309 312 318 317 311 304 299 296 294 294 295 296 297 296 292 286 280 274
158 159 156 155 152 151 158 160 157 161 171 178 176 171 172 168 162 163 165 162 159 155 151 155 162 165 163 152 143 152 160 181 194 204 219 229 237 255 278 283 289 294 297 300 300 302 302 299 302 304 303 308 312 314 316 311 312 317 317 316 316 318 325 334 340 341 336 326 324 328 327 322 315 309 305 302 300 301 301 300 299 296 291 286 283
159 158 156 155 156 158 160 162 160 160 169 179 176 170 170 171 166 165 164 159 155 151 151 157 161 157 149 134 132 159 179 190 192 199 212 221 230 262 284 268 268 275 280 285 290 293 288 287 295 299 298 304 307 310 313 311 314 316 315 319 321 327 337 344 353 360 356 344 332 330 332 331 326 320 316 312 309 307 307 305 301 298 294 291 290
160 159 159 159 160 163 164 164 160 159 167 176 177 173 172 173 168 164 161 153 152 153 151 151 148 140 134 136 146 163 186 190 193 201 202 204 208 229 238 237 245 251 259 268 277 285 284 285 292 296 296 299 306 309 308 316 328 326 322 324 331 341 344 348 31 358 343 342 340 343 347 344 340 336 329 323 317 312 310 307 305 302 300 297 295
159 161 162 161 162 164 166 164 159 158 163 171 178 175 170 168 165 163 158 149 149 148 143 138 136 137 138 148 152 151 167 173 173 191 201 203 206 217 226 232 242 247 253 258 263 266 270 277 281 281 285 295 309 308 309 327 340 334 330 334 341 357 5 20 69 340 338 349 358 353 352 350 348 344 338 335 330 321 313 308 306 307 307 304 300
161 164 162 162 162 163 165 163 159 159 161 167 174 172 165 162 159 161 159 149 144 140 139 136 136 149 158 160 151 142 157 179 190 203 211 213 215 221 226 232 239 245 250 255 258 261 266 272 275 274 274 277 278 287 314 333 335 333 338 348 355 5 6 332 311 336 348 356 354 354 351 347 347 343 338 339 340 336 329 319 314 313 312 310 307
166 166 162 161 162 164 165 161 160 162 162 164 167 166 163 160 158 156 153 148 144 143 142 139 151 173 170 163 159 161 184 205 210 212 214 216 222 227 230 234 237 243 249 253 257 263 271 274 275 279 279 276 268 267 302 318 324 342 354 0 4 5 358 330 321 333 339 317 336 350 347 340 342 342 338 339 341 339 336 332 328 324 321 318 314
170 166 162 163 164 165 165 162 161 163 164 164 163 164 164 163 161 155 151 151 151 151 151 155 170 180 173 172 185 199 211 220 224 224 220 219 222 229 236 239 242 247 249 252 256 261 270 275 276 281 284 286 282 275 272 277 305 351 8 13 13 359 350 333 326 323 310 316 325 328 336 334 332 337 339 340 340 337 332 331 331 329 328 327 323
170 166 164 166 166 165 164 162 160 162 165 164 161 162 163 163 164 160 156 155 153 154 157 162 171 175 182 197 206 211 219 228 234 237 237 234 229 230 236 241 247 250 250 252 255 260 268 274 278 281 283 286 285 283 275 263 266 281 355 26 25 350 336 334 332 317 306 308 309 310 317 311 308 326 332 331 332 333 329 326 328 331 332 330 328
170 166 165 167 166 164 164 163 162 164 165 163 161 161 161 162 165 163 159 157 157 156 157 165 175 183 195 208 216 220 225 233 239 244 248 249 247 245 242 243 249 253 255 256 258 264 270 275 281 284 284 284 284 285 282 276 270 256 246 256 273 294 315 328 338 327 313 305 299 301 303 298 296 306 311 313 314 314 317 326 333 334 331 329 327
168 167 165 165 165 164 165 165 164 165 163 161 160 160 162 164 163 161 157 158 160 157 159 171 183 193 203 214 225 231 234 239 242 246 251 253 256 257 250 244 247 254 261 267 272 274 274 275 279 282 286 287 285 285 285 287 284 278 271 270 275 285 299 311 323 329 326 312 303 300 297 293 294 299 300 298 297 299 308 324 336 338 335 331 326
165 164 163 162 163 163 164 164 162 160 159 159 158 158 163 165 162 163 162 158 158 158 164 176 188 200 214 227 235 237 239 241 243 248 251 252 255 256 253 248 250 258 268 278 282 276 272 270 271 280 291 295 292 288 289 292 295 298 301 301 302 304 305 310 316 326 338 332 320 313 307 301 298 302 305 302 298 297 303 314 331 338 339 337 333
161 160 159 158 159 160 160 159 155 155 156 157 158 155 156 158 158 162 165 161 160 164 171 184 199 211 225 237 241 240 240 242 245 247 244 246 250 247 248 253 251 256 265 272 266 260 269 272 273 323 340 330 311 307 309 314 319 320 318 320 326 330 329 332 340 344 347 344 335 328 324 319 310 309 313 315 314 310 306 311 326 332 335 339 344
155 153 153 153 153 155 158 156 153 154 156 158 159 157 156 158 159 161 166 166 168 176 185 198 207 216 228 236 242 243 242 240 240 241 234 229 233 229 227 231 228 228 218 164 174 255 307 339 16 17 6 349 339 338 338 341 343 338 337 344 350 351 350 349 349 349 347 342 334 328 327 327 321 315 315 318 320 318 318 318 315 322 332 337 346
Height
1528 1530 1531 1531 1533 1533 1535 1535 1536 1536 1537 1538 1539 1540 1541 1542 1542 1542 1542 1542 1543 1544 1544 1544 1545 1545 1545 1546 1546 1547 1548 1548 1548 1549 1549 1549 1549 1550 1550 1550 1550 1550 1550 1550 1550 1550 1549 1549 1549 1548 1548 1549 1549 1550 1550 1551 1551 1552 1552 1553 1553 1554 1554 1554 1554 1555 1555 1555 1556 1555 1555 1555 1555 1555 1554 1554 1553 1553 1553 1553 1552 1552 1551 1551 1551
1526 1528 1530 1531 1532 1533 1535 1535 1536 1536 1537 1538 1539 1540 1541 1542 1542 1542 1542 1543 1544 1544 1545 1545 1545 1545 1546 1546 1547 1548 1548 1549 1549 1549 1550 1550 1550 1550 1551 1551 1551 1551 1551 1550 1550 1550 1550 1550 1550 1549 1549 1550 1550 1551 1551 1552 1552 1552 1553 1554 1554 1555 1555 1555 1555 1556 1556 1556 1557 1557 1557 1556 1556 1555 1555 1555 1554 1554 1554 1553 1553 1553 1552 1552 1551
1525 1527 1528 1530 1531 1533 1534 1534 1536 1536 1537 1538 1539 1540 1541 1542 1542 1543 1543 1544 1544 1545 1545 1545 1546 1546 1547 1547 1548 1548 1549 1549 1549 1550 1550 1551 1551 1551 1551 1552 1551 1551 1551 1551 1551 1550 1550 1550 1550 1550 1550 1551 1551 1552 1552 1553 1553 1554 1554 1555 1555 1555 1556 1556 1556 1557 1557 1557 1558 1558 1558 1557 1557 1556 1556 1556 1555 1555 1555 1554 1554 1553 1553 1552 1552
1524 1526 1527 1528 1530 1532 1533 1534 1535 1536 1537 1537 1539 1540 1541 1542 1542 1543 1543 1544 1545 1545 1546 1546 1547 1547 1547 1548 1548 1549 1550 1550 1550 1551 1551 1551 1552 1552 1552 1552 1552 1552 1552 1552 1551 1551 1551 1551 1551 1551 1551 1552 1552 1552 1553 1554 1554 1555 1555 1556 1556 1557 1557 1557 1557 1557 1558 1558 1558 1558 1558 1558 1558 1558 1557 1557 1556 1556 1556 1555 1555 1554 1553 1553 1552
1524 1525 1526 1527 1529 1531 1533 1534 1534 1535 1536 1537 1538 1539 1541 1542 1543 1544 1544 1545 1545 1546 1546 1547 1547 1548 1548 1548 1549 1550 1550 1551 1551 1552 1552 1552 1552 1553 1553 1553 1553 1553 1552 1552 1552 1552 1552 1552 1552 1552 1552 1552 1553 1553 1554 1554 1555 1556 1556 1557 1557 1557 1558 1558 1558 1558 1558 1558 1559 1559 1559 1559 1559 1559 1558 1558 1557 1557 1556 1556 1555 1555 1554 1553 1553
1523 1524 1525 1526 1528 1530 1532 1533 1534 1535 1536 1537 1538 1539 1541 1542 1543 1544 1544 1545 1546 1546 1547 1548 1548 1549 1549 1549 1550 1550 1551 1552 1552 1552 1553 1553 1553 1553 1553 1554 1553 1553 1553 1553 1553 1553 1553 1553 1552 1552 1553 1553 1554 1554 1555 1555 1556 1557 1557 1558 1558 1558 1559 1559 1559 1559 1559 1559 1559 1559 1559 1560 1560 1560 1559 1559 1558 1557 1557 1556 1555 1555 1554 1554 1553
1522 1523 1525 1526 1527 1529 1531 1533 1534 1535 1536 1537 1538 1539 1541 1542 1543 1544 1545 1545 1546 1547 1548 1548 1549 1550 1550 1550 1551 1551 1552 1552 1553 1553 1553 1554 1554 1554 1554 1554 1554 1554 1554 1554 1554 1553 1553 1553 1553 1553 1553 1554 1555 1555 1556 1556 1557 1557 1558 1558 1559 1559 1560 1560 1560 1560 1560 1560 1560 1560 1560 1560 1561 1560 1560 1559 1559 1558 1557 1557 1556 1556 1555 1554 1554
1522 1523 1525 1526 1527 1529 1531 1532 1533 1534 1535 1537 1538 1539 1541 1542 1544 1545 1545 1546 1547 1548 1548 1549 1550 1550 1551 1551 1552 1553 1553 1553 1554 1554 1555 1555 1555 1555 1555 1555 1555 1555 1554 1554 1554 1554 1554 1554 1554 1554 1554 1555 1555 1556 1556 1557 1558 1558 1559 1560 1560 1560 1561 1561 1561 1561 1561 1561 1561 1561 1561 1562 1562 1561 1561 1560 1559 1559 1558 1558 1557 1556 1556 1555 1554
1522 1523 1525 1526 1527 1528 1530 1532 1533 1534 1535 1537 1538 1540 1541 1543 1544 1545 1546 1547 1548 1548 1549 1550 1550 1551 1552 1552 1553 1554 1554 1554 1555 1555 1555 1555 1556 1556 1556 1556 1555 1555 1555 1555 1555 1555 1555 1555 1555 1555 1555 1555 1556 1556 1557 1558 1559 1559 1560 1561 1561 1561 1562 1562 1562 1562 1562 1561 1562 1562 1562 1563 1562 1562 1561 1561 1560 1560 1559 1558 1558 1557 1556 1556 1555
1521 1523 1525 1526 1527 1529 1530 1532 1533 1534 1535 1537 1538 1540 1541 1543 1545 1546 1547 1548 1549 1549 1550 1551 1551 1552 1553 1553 1554 1555 1555 1555 1556 1556 1556 1556 1557 1556 1556 1556 1556 1556 1555 1555 1555 1555 1555 1555 1555 1556 1556 1556 1557 1557 1558 1559 1560 1560 1561 1561 1562 1562 1562 1563 1563 1563 1562 1562 1562 1563 1563 1563 1563 1563 1562 1562 1561 1560 1559 1559 1558 1558 1557 1556 1555
1521 1523 1524 1526 1527 1529 1530 1532 1533 1535 1536 1537 1539 1540 1542 1543 1545 1546 1547 1548 1549 1550 1551 1552 1552 1553 1554 1555 1555 1556 1556 1557 1557 1557 1557 1557 1557 1557 1557 1556 1556 1556 1556 1556 1556 1556 1556 1556 1556 1557 1557 1557 1558 1559 1559 1560 1561 1561 1562 1562 1562 1563 1563 1563 1564 1563 1563 1563 1564 1564 1564 1564 1564 1564 1563 1562 1562 1561 1560 1559 1558 1558 1557 1556 1555
1521 1522 1524 1526 1527 1529 1531 1532 1534 1535 1536 1538 1540 1541 1543 1544 1546 1547 1548 1549 1550 1551 1552 1553 1553 1554 1555 1556 1556 1557 1557 1558 1558 1558 1558 1558 1558 1558 1557 1557 1557 1556 1556 1556 1557 1557 1557 1557 1557 1558 1558 1559 1559 1560 1560 1561 1561 1562 1563 1563 1563 1564 1564 1564 1564 1564 1564 1564 1565 1565 1565 1565 1564 1564 1563 1563 1562 1561 1560 1560 1559 1558 1557 1556 1555
1520 1522 1524 1525 1527 1529 1530 1532 1534 1536 1537 1539 1540 1542 1543 1545 1546 1548 1549 1550 1551 1552 1553 1554 1554 1555 1556 1557 1557 1558 1559 1559 1559 1559 1559 1559 1559 1558 1558 1558 1557 1557 1557 1557 1558 1558 1558 1558 1558 1559 1559 1560 1560 1561 1561 1562 1562 1563 1563 1564 1564 1564 1565 1565 1565 1565 1564 1564 1566 1566 1565 1565 1565 1564 1564 1563 1563 1562 1561 1560 1559 1558 1557 1556 1556
1520 1522 1524 1525 1527 1529 1530 1533 1534 1536 1538 1540 1541 1542 1544 1546 1547 1548 1550 1551 1552 1553 1554 1555 1555 1556 1557 1558 1558 1559 1559 1560 1560 1560 1560 1559 1559 1559 1558 1558 1558 1558 1558 1558 1558 1559 1559 1559 1560 1560 1560 1561 1561 1562 1562 1563 1563 1564 1564 1564 1565 1565 1565 1566 1566 1565 1564 1565 1566 1566 1566 1565 1565 1565 1564 1563 1563 1562 1561 1560 1559 1558 1557 1557 1556
1520 1522 1524 1526 1527 1529 1531 1533 1535 1537 1539 1540 1542 1543 1545 1547 1548 1549 1551 1552 1553 1554 1555 1555 1556 1557 1558 1558 1559 1560 1560 1560 1561 1560 1560 1560 1560 1559 1559 1559 1558 1558 1558 1559 1559 1560 1560 1560 1561 1561 1562 1562 1562 1563 1563 1564 1564 1565 1565 1565 1566 1566 1566 1566 1567 1566 1565 1565 1566 1566 1566 1566 1565 1565 1564 1564 1563 1562 1562 1561 1560 1559 1558 1557 1556
1521 1523 1525 1526 1528 1530 1531 1534 1536 1538 1540 1541 1543 1544 1546 1547 1549 1550 1551 1552 1553 1554 1555 1556 1557 1557 1558 1559 1560 1560 1561 1561 1561 1561 1561 1560 1560 1560 1560 1559 1559 1559 1559 1560 1560 1561 1561 1562 1562 1562 1563 1563 1564 1564 1564 1565 1565 1566 1566 1566 1566 1566 1567 1567 1567 1566 1565 1566 1566 1566 1566 1566 1566 1565 1565 1564 1563 1562 1562 1561 1560 1559 1558 1557 1556
1522 1524 1525 1527 1529 1531 1532 1534 1537 1539 1540 1542 1544 1545 1547 1548 1549 1550 1552 1553 1554 1555 1555 1556 1557 1558 1559 1559 1560 1561 1561 1561 1561 1561 1561 1561 1561 1561 1560 1560 1560 1560 1560 1560 1561 1562 1562 1563 1563 1563 1564 1564 1565 1565 1565 1565 1566 1566 1566 1566 1567 1567 1567 1567 1568 1566 1566 1566 1567 1567 1566 1566 1566 1565 1565 1564 1564 1563 1562 1561 1560 1559 1558 1557 1556
1523 1525 1526 1528 1530 1532 1534 1536 1538 1540 1541 1543 1545 1546 1547 1549 1550 1551 1552 1553 1554 1555 1556 1557 1557 1558 1559 1560 1560 1561 1561 1561 1561 1561 1561 1561 1561 1561 1561 1561 1561 1561 1561 1561 1562 1562 1563 1563 1564 1564 1565 1565 1565 1565 1566 1566 1566 1567 1567 1567 1567 1567 1567 1568 1568 1567 1566 1567 1567 1567 1567 1566 1566 1565 1565 1564 1564 1563 1562 1561 1560 1559 1558 1557 1556
1524 1526 1527 1529 1531 1534 1535 1537 1539 1541 1542 1544 1545 1546 1548 1549 1550 1551 1552 1553 1554 1555 1556 1557 1558 1558 1559 1560 1560 1561 1561 1561 1561 1561 1561 1561 1562 1562 1562 1562 1562 1562 1562 1562 1563 1563 1564 1564 1565 1565 1565 1566 1566 1566 1566 1566 1567 1567 1567 1567 1567 1568 1568 1568 1568 1567 1567 1567 1567 1567 1567 1566 1566 1566 1565 1564 1564 1563 1562 1561 1560 1559 1558 1557 1557
1525 1527 1528 1530 1532 1534 1536 1538 1540 1542 1543 1544 1546 1547 1548 1550 1551 1552 1553 1554 1555 1555 1556 1557 1558 1558 1559 1560 1560 1561 1561 1562 1562 1562 1562 1562 1562 1563 1563 1563 1563 1563 1563 1563 1564 1564 1564 1565 1565 1566 1566 1566 1566 1567 1567 1567 1567 1567 1568 1568 1568 1568 1568 1568 1568 1567 1567 1567 1567 1567 1567 1566 1566 1566 1565 1564 1564 1563 1562 1561 1560 1559 1558 1557 1556
1526 1527 1529 1531 1533 1535 1537 1539 1541 1543 1544 1545 1546 1547 1549 1551 1551 1552 1553 1554 1555 1556 1556 1557 1558 1558 1559 1560 1560 1561 1561 1562 1562 1563 1563 1563 1563 1563 1563 1563 1563 1564 1564 1564 1564 1565 1565 1565 1566 1566 1566 1567 1567 1567 1567 1567 1567 1568 1568 1569 1569 1569 1569 1569 1568 1566 1566 1567 1567 1567 1567 1566 1566 1565 1565 1564 1563 1563 1562 1561 1560 1559 1558 1557 1556
1526 1528 1530 1532 1534 1536 1538 1540 1541 1543 1545 1546 1547 1548 1549 1551 1551 1553 1553 1554 1555 1556 1556 1557 1558 1558 1559 1560 1560 1561 1561 1562 1563 1563 1563 1563 1563 1564 1564 1564 1564 1564 1564 1565 1565 1565 1566 1566 1566 1566 1566 1567 1567 1567 1567 1567 1568 1568 1568 1569 1569 1569 1568 1569 1568 1566 1566 1566 1566 1566 1566 1566 1566 1565 1564 1564 1563 1562 1561 1560 1560 1559 1558 1557 1556
1527 1528 1530 1533 1534 1536 1538 1540 1541 1543 1545 1546 1548 1548 1550 1551 1552 1553 1553 1554 1555 1556 1557 1557 1558 1559 1559 1560 1560 1561 1562 1562 1563 1563 1564 1564 1564 1564 1564 1564 1565 1565 1565 1565 1566 1566 1566 1566 1566 1567 1567 1567 1567 1567 1568 1568 1568 1568 1568 1569 1568 1568 1568 1568 1567 1566 1566 1566 1566 1566 1566 1565 1565 1564 1564 1563 1562 1562 1561 1560 1559 1559 1558 1557 1556
1527 1528 1530 1532 1534 1535 1537 1539 1541 1543 1545 1546 1548 1549 1550 1551 1552 1553 1554 1555 1555 1556 1557 1557 1558 1558 1559 1560 1560 1561 1561 1562 1563 1563 1564 1565 1565 1565 1565 1565 1565 1566 1566 1566 1566 1566 1567 1567 1567 1567 1567 1567 1567 1567 1567 1568 1568 1568 1568 1568 1568 1568 1567 1567 1567 1566 1566 1566 1565 1565 1565 1565 1564 1564 1564 1563 1562 1561 1561 1560 1559 1558 1558 1556 1556
1527 1527 1529 1531 1533 1534 1536 1539 1541 1543 1545 1547 1548 1550 1551 1552 1553 1554 1555 1555 1556 1557 1557 1558 1558 1558 1559 1560 1560 1561 1561 1562 1562 1563 1564 1565 1565 1565 1565 1565 1566 1566 1566 1566 1567 1567 1567 1567 1567 1567 1567 1567 1568 1568 1568 1567 1567 1567 1567 1568 1568 1568 1567 1567 1566 1566 1565 1565 1565 1564 1564 1564 1563 1563 1563 1562 1562 1561 1560 1559 1559 1558 1557 1556 1555
1526 1527 1528 1530 1532 1534 1536 1539 1542 1544 1546 1547 1549 1550 1551 1552 1553 1554 1555 1556 1557 1557 1557 1558 1558 1558 1559 1560 1561 1561 1561 1562 1563 1563 1564 1565 1565 1566 1566 1565 1566 1566 1566 1567 1567 1567 1567 1567 1567 1567 1567 1567 1568 1568 1568 1567 1567 1567 1567 1567 1567 1567 1567 1566 1566 1565 1565 1564 1564 1564 1563 1563 1563 1562 1562 1561 1561 1560 1560 1559 1558 1557 1557 1556 1555
1526 1527 1527 1530 1532 1534 1537 1540 1543 1545 1546 1548 1549 1550 1551 1553 1555 1556 1557 1557 1557 1557 1558 1558 1559 1559 1559 1560 1561 1561 1561 1562 1563 1563 1564 1565 1565 1566 1566 1566 1566 1566 1566 1566 1566 1566 1567 1567 1567 1567 1567 1567 1567 1567 1567 1567 1567 1566 1567 1567 1566 1566 1566 1565 1565 1565 1564 1564 1563 1563 1563 1562 1562 1562 1561 1560 1560 1560 1559 1559 1558 1557 1556 1555 1554
1530 1531 1531 1531 1534 1537 1540 1543 1544 1546 1547 1548 1549 1550 1552 1554 1556 1557 1558 1558 1558 1558 1558 1559 1559 1559 1559 1560 1561 1561 1561 1562 1563 1564 1564 1565 1565 1566 1566 1566 1566 1566 1566 1566 1566 1566 1566 1566 1566 1566 1566 1566 1566 1566 1566 1566 1566 1566 1566 1566 1566 1565 1565 1564 1564 1564 1563 1563 1563 1562 1562 1561 1561 1560 1560 1559 1559 1558 1558 1558 1557 1556 1555 1554 1554
1536 1536 1536 1535 1537 1540 1542 1544 1545 1546 1547 1548 1549 1551 1552 1555 1557 1557 1558 1558 1558 1558 1559 1559 1559 1559 1560 1560 1560 1561 1562 1563 1564 1565 1565 1566 1566 1567 1567 1567 1567 1567 1567 1567 1567 1567 1567 1567 1567 1567 1566 1566 1566 1566 1566 1566 1566 1566 1566 1565 1565 1565 1564 1563 1563 1563 1562 1562 1561 1561 1560 1560 1560 1559 1559 1558 1558 1557 1556 1556 1556 1555 1554 1553 1553
1539 1540 1540 1540 1542 1543 1543 1545 1545 1546 1547 1548 1549 1551 1553 1555 1557 1557 1557 1558 1559 1559 1559 1559 1559 1559 1560 1560 1560 1561 1562 1564 1565 1565 1566 1566 1567 1567 1567 1568 1568 1568 1567 1568 1568 1567 1567 1567 1567 1567 1566 1566 1566 1566 1566 1566 1566 1566 1565 1564 1563 1563 1563 1562 1562 1562 1561 1561 1560 1559 1559 1559 1558 1558 1557 1557 1556 1555 1554 1554 1554 1553 1553 1552 1552
1538 1541 1544 1545 1546 1546 1545 1546 1546 1547 1548 1549 1550 1552 1554 1556 1557 1558 1558 1559 1559 1559 1559 1559 1560 1560 1560 1560 1561 1562 1563 1564 1565 1566 1566 1567 1567 1567 1568 1568 1568 1568 1568 1568 1568 1567 1567 1567 1567 1566 1566 1565 1565 1565 1565 1565 1565 1564 1563 1562 1562 1562 1561 1561 1561 1561 1560 1560 1559 1558 1557 1557 1556 1556 1555 1555 1554 1553 1553 1552 1553 1552 1552 1551 1550
1534 1539 1544 1547 1550 1550 1547 1547 1548 1548 1549 1549 1551 1552 1554 1556 1557 1559 1560 1560 1561 1561 1561 1561 1561 1561 1561 1561 1562 1562 1563 1564 1565 1566 1567 1567 1567 1567 1568 1568 1568 1568 1568 1568 1567 1567 1567 1567 1566 1566 1565 1565 1565 1565 1564 1564 1563 1563 1562 1562 1561 1560 1560 1559 1559 1559 1558 1558 1558 1557 1556 1555 1554 1554 1554 1553 1552 1552 1552 1551 1551 1551 1551 1550 1549
1532 1536 1540 1543 1549 1552 1549 1548 1548 1548 1548 1549 1550 1552 1554 1555 1557 1560 1561 1561 1563 1563 1563 1562 1562 1562 1562 1562 1562 1563 1564 1564 1565 1566 1567 1567 1567 1567 1567 1567 1568 1568 1567 1567 1567 1567 1567 1566 1566 1565 1565 1564 1564 1563 1563 1562 1562 1562 1561 1560 1560 1559 1558 1558 1557 1557 1556 1556 1556 1555 1554 1553 1553 1552 1552 1551 1551 1551 1550 1550 1550 1550 1550 1549 1548
1532 1535 1538 1538 1543 1548 1548 1547 1547 1547 1547 1549 1550 1552 1554 1555 1557 1559 1560 1561 1562 1564 1564 1563 1563 1562 1562 1562 1563 1563 1564 1564 1565 1566 1567 1567 1567 1567 1567 1567 1567 1567 1567 1567 1567 1566 1566 1566 1565 1565 1564 1563 1563 1562 1562 1561 1561 1561 1560 1559 1558 1558 1557 1556 1556 1555 1554 1554 1554 1554 1553 1552 1551 1551 1550 1549 1549 1549 1549 1549 1548 1548 1548 1547 1546
1532 1535 1537 1538 1540 1544 1546 1546 1547 1547 1548 1549 1550 1552 1553 1554 1556 1557 1558 1559 1561 1563 1564 1563 1563 1563 1563 1563 1563 1564 1564 1565 1566 1566 1566 1567 1566 1567 1567 1567 1566 1566 1566 1566 1566 1566 1566 1565 1565 1564 1564 1563 1562 1562 1561 1560 1560 1559 1559 1558 1557 1556 1556 1555 1554 1553 1553 1552 1552 1552 1551 1550 1549 1549 1548 1548 1547 1548 1547 1547 1546 1546 1545 1545 1544
1529 1532 1534 1537 1539 1541 1543 1545 1546 1547 1549 1550 1551 1552 1553 1554 1556 1557 1558 1558 1559 1561 1563 1563 1563 1563 1563 1563 1564 1565 1565 1566 1566 1566 1566 1566 1566 1567 1567 1566 1566 1566 1566 1566 1566 1566 1565 1565 1564 1564 1563 1562 1562 1561 1560 1560 1559 1558 1557 1556 1556 1555 1554 1554 1553 1552 1551 1549 1549 1549 1549 1548 1548 1547 1546 1545 1545 1546 1545 1545 1544 1544 1543 1542 1542
1526 1528 1531 1532 1534 1536 1539 1541 1543 1546 1549 1551 1552 1552 1553 1554 1556 1557 1558 1557 1558 1560 1562 1562 1562 1563 1563 1564 1564 1565 1566 1566 1566 1566 1566 1566 1566 1567 1567 1567 1566 1566 1566 1566 1565 1565 1565 1565 1564 1564 1563 1562 1561 1560 1559 1559 1558 1557 1556 1555 1554 1554 1553 1552 1552 1550 1549 1548 1547 1547 1547 1546 1546 1545 1544 1544 1543 1543 1543 1543 1542 1541 1541 1540 1539
1525 1527 1529 1530 1531 1533 1536 1538 1541 1544 1548 1550 1552 1553 1553 1555 1556 1556 1556 1556 1558 1560 1561 1562 1562 1562 1563 1564 1564 1564 1565 1565 1565 1565 1566 1567 1567 1566 1566 1567 1566 1565 1565 1565 1565 1565 1565 1565 1564 1563 1563 1562 1560 1559 1558 1558 1557 1556 1555 1554 1553 1552 1552 1551 1550 1550 1548 1547 1546 1546 1545 1545 1544 1543 1542 1542 1542 1541 1540 1540 1539 1539 1538 1537 1536
1524 1527 1529 1530 1531 1532 1533 1536 1539 1543 1546 1549 1551 1553 1553 1554 1555 1555 1555 1555 1557 1558 1560 1561 1562 1562 1563 1563 1564 1564 1565 1565 1565 1565 1566 1567 1567 1565 1565 1566 1566 1565 1565 1565 1565 1565 1565 1564 1564 1563 1562 1561 1560 1559 1558 1557 1556 1555 1554 1553 1552 1551 1550 1550 1549 1549 1548 1547 1546 1545 1544 1544 1543 1543 1542 1541 1540 1540 1539 1538 1537 1536 1535 1535 1534
1525 1526 1528 1529 1530 1530 1531 1533 1537 1541 1544 1547 1549 1552 1552 1553 1553 1554 1554 1554 1555 1557 1559 1560 1561 1562 1562 1563 1564 1565 1565 1566 1566 1566 1566 1566 1565 1565 1566 1566 1566 1566 1565 1565 1565 1564 1564 1563 1563 1562 1561 1560 1560 1558 1557 1556 1555 1554 1553 1552 1551 1550 1549 1548 1548 1548 1547 1546 1545 1544 1543 1543 1542 1542 1541 1540 1539 1538 1537 1536 1535 1534 1533 1533 1532
1526 1527 1527 1527 1529 1529 1531 1532 1535 1539 1542 1545 1547 1550 1551 1552 1552 1553 1553 1554 1555 1556 1557 1559 1560 1561 1562 1563 1563 1564 1565 1566 1566 1564 1564 1565 1566 1568 1568 1567 1566 1566 1565 1564 1564 1564 1563 1562 1561 1560 1559 1559 1559 1558 1556 1554 1553 1552 1551 1550 1550 1549 1547 1546 1546 1546 1546 1545 1544 1543 1543 1542 1541 1541 1540 1540 1538 1537 1536 1535 1534 1533 1532 1531 1530
1527 1527 1527 1527 1528 1530 1531 1533 1535 1538 1541 1543 1546 1548 1549 1551 1551 1551 1551 1553 1554 1555 1556 1558 1559 1560 1561 1562 1562 1563 1565 1566 1564 1563 1565 1567 1568 1568 1568 1567 1566 1565 1564 1563 1563 1562 1561 1560 1560 1559 1558 1558 1558 1556 1555 1553 1552 1551 1549 1548 1548 1547 1546 1545 1545 1545 1544 1543 1543 1542 1542 1541 1540 1540 1539 1539 1538 1537 1535 1534 1533 1531 1530 1529 1528
1527 1527 1527 1527 1528 1530 1532 1534 1535 1537 1540 1543 1544 1546 1548 1549 1550 1550 1550 1551 1553 1554 1555 1557 1557 1559 1560 1561 1562 1563 1563 1563 1563 1564 1567 1568 1568 1567 1566 1566 1565 1564 1563 1563 1562 1561 1560 1559 1558 1558 1557 1558 1557 1556 1554 1553 1551 1550 1548 1547 1546 1545 1545 1544 1543 1543 1542 1541 1541 1541 1540 1540 1539 1538 1538 1537 1537 1536 1534 1533 1531 1530 1528 1527 1526
1527 1527 1527 1527 1528 1530 1532 1534 1535 1537 1540 1542 1543 1545 1546 1548 1549 1549 1549 1550 1551 1552 1554 1555 1556 1558 1559 1560 1561 1562 1562 1563 1565 1566 1567 1567 1567 1566 1565 1564 1563 1563 1562 1562 1561 1560 1559 1558 1557 1557 1556 1557 1556 1555 1554 1552 1550 1549 1548 1547 1546 1545 1544 1542 1540 1541 1541 1540 1539 1539 1538 1538 1537 1536 1536 1535 1535 1534 1533 1532 1530 1528 1527 1525 1524
1527 1527 1528 1528 1528 1530 1533 1534 1535 1537 1539 1541 1542 1543 1545 1546 1547 1548 1548 1549 1550 1551 1552 1553 1556 1558 1558 1559 1560 1562 1563 1565 1566 1566 1566 1566 1565 1565 1564 1563 1563 1562 1562 1561 1560 1559 1558 1557 1556 1556 1555 1555 1555 1554 1554 1552 1551 1549 1548 1547 1547 1546 1545 1543 1540 1538 1538 1538 1537 1537 1537 1536 1535 1534 1534 1533 1533 1532 1531 1530 1529 1527 1525 1524 1523
1527 1528 1529 1529 1530 1531 1533 1534 1536 1537 1538 1540 1541 1543 1544 1545 1546 1546 1547 1548 1549 1551 1552 1553 1555 1557 1558 1560 1562 1564 1565 1566 1566 1565 1565 1564 1564 1563 1563 1562 1562 1561 1560 1560 1559 1558 1557 1556 1555 1555 1554 1554 1553 1553 1552 1552 1550 1549 1548 1548 1548 1547 1545 1543 1541 1537 1535 1535 1535 1535 1535 1534 1534 1533 1532 1531 1530 1529 1529 1528 1527 1526 1524 1523 1521
1527 1528 1530 1530 1531 1531 1532 1534 1536 1537 1538 1539 1540 1542 1543 1544 1546 1547 1547 1548 1550 1551 1552 1553 1554 1557 1559 1561 1563 1564 1565 1565 1564 1564 1564 1563 1563 1562 1562 1561 1560 1560 1559 1558 1558 1558 1557 1556 1555 1554 1553 1553 1552 1551 1550 1549 1549 1548 1547 1547 1547 1546 1544 1543 1541 1538 1534 1532 1532 1533 1533 1532 1532 1531 1530 1530 1528 1527 1526 1526 1525 1524 1523 1522 1520
1527 1528 1530 1531 1531 1532 1532 1534 1536 1537 1538 1539 1539 1541 1542 1543 1545 1546 1547 1548 1549 1550 1552 1553 1555 1558 1560 1561 1562 1563 1563 1563 1563 1562 1562 1562 1561 1561 1560 1560 1559 1558 1557 1557 1557 1557 1556 1555 1554 1553 1552 1551 1550 1549 1548 1547 1546 1545 1545 1545 1544 1544 1543 1542 1540 1538 1536 1532 1529 1529 1529 1529 1530 1529 1528 1528 1527 1525 1525 1525 1524 1523 1521 1520 1518
1527 1529 1530 1531 1532 1532 1532 1534 1535 1537 1538 1538 1539 1540 1542 1543 1545 1546 1546 1547 1549 1550 1552 1555 1557 1558 1559 1559 1560 1561 1561 1561 1561 1561 1560 1560 1560 1559 1558 1558 1557 1557 1556 1556 1556 1555 1554 1554 1553 1552 1551 1550 1549 1547 1546 1545 1544 1543 1542 1542 1541 1541 1540 1539 1537 1535 1534 1532 1529 1527 1525 1524 1525 1526 1526 1525 1524 1524 1524 1523 1523 1521 1519 1517 1515
1528 1529 1530 1532 1533 1532 1532 1533 1535 1536 1537 1538 1539 1540 1542 1544 1545 1545 1546 1547 1548 1551 1553 1555 1556 1557 1557 1557 1558 1559 1559 1559 1559 1559 1559 1559 1558 1557 1557 1556 1555 1555 1555 1555 1555 1554 1553 1553 1552 1552 1551 1549 1548 1546 1545 1544 1543 1542 1541 1540 1539 1538 1537 1535 1534 1533 1532 1531 1530 1528 1526 1524 1522 1521 1522 1522 1522 1522 1522 1522 1521 1519 1517 1514 1513
1528 1530 1531 1532 1533 1533 1532 1533 1534 1536 1537 1537 1539 1540 1542 1543 1544 1544 1544 1546 1548 1550 1552 1553 1554 1556 1556 1556 1557 1557 1557 1557 1558 1558 1558 1557 1556 1556 1555 1555 1554 1554 1555 1554 1554 1553 1553 1552 1552 1551 1550 1548 1547 1546 1544 1543 1542 1541 1540 1539 1538 1537 1535 1534 1533 1532 1531 1530 1529 1527 1526 1525 1523 1520 1519 1519 1519 1519 1519 1520 1518 1517 1515 1513 1511